This is the latest recevied weather packets stored in our database for station/object KM4CBK. If no packets are shown the sender has not sent any weather packets the latest 10 day(s).
| Time | Temp. | Humidity | Pressure | Rain* | Wind** | Luminosity | Snow |
|---|---|---|---|---|---|---|---|
| 1777439096 | 18.33° C | 99% | 1014.7 hPa | 0 mm | - | 0 W/m² | - |
| 1777438793 | 18.89° C | 99% | 1014.9 hPa | 1.78 mm | - | 0 W/m² | - |
| 1777438490 | 18.89° C | 99% | 1014.9 hPa | 8.89 mm | - | 0 W/m² | - |
| 1777438186 | 18.89° C | 99% | 1015 hPa | 8.38 mm | - | 0 W/m² | - |
| 1777437882 | 18.89° C | 99% | 1015.8 hPa | 0.51 mm | - | 0 W/m² | - |
| 1777437579 | 18.89° C | 99% | 1015.5 hPa | 0 mm | - | 0 W/m² | - |
| 1777437275 | 18.89° C | 99% | 1015.4 hPa | 0.51 mm | - | 0 W/m² | - |
| 1777436972 | 18.89° C | 99% | 1015 hPa | 1.78 mm | - | 0 W/m² | - |
| 1777436668 | 18.89° C | 99% | 1015.1 hPa | 0.51 mm | - | 0 W/m² | - |
| 1777436365 | 18.89° C | 99% | 1015.4 hPa | 0.51 mm | - | 0 W/m² | - |
| 1777436060 | 18.89° C | 99% | 1015.4 hPa | 0 mm | - | 0 W/m² | - |
| 1777435757 | 18.89° C | 99% | 1015.7 hPa | 0 mm | - | 0 W/m² | - |
| 1777435454 | 18.89° C | 99% | 1015.3 hPa | 0 mm | - | 0 W/m² | - |
| 1777435149 | 18.89° C | 99% | 1015.4 hPa | 0 mm | - | 0 W/m² | - |
| 1777434844 | 18.89° C | 99% | 1015.6 hPa | 0 mm | - | 0 W/m² | - |
| 1777434543 | 18.89° C | 99% | 1015.6 hPa | 0 mm | - | 0 W/m² | - |
| 1777434240 | 18.89° C | 99% | 1016 hPa | 0 mm | - | 0 W/m² | - |
| 1777433937 | 18.89° C | 99% | 1015.8 hPa | 0 mm | - | 0 W/m² | - |
| 1777433634 | 18.89° C | 99% | 1016.2 hPa | 0 mm | - | 0 W/m² | - |
| 1777433330 | 18.89° C | 99% | 1015.8 hPa | 0 mm | - | 0 W/m² | - |
| 1777433026 | 18.89° C | 99% | 1015.4 hPa | 0 mm | - | 0 W/m² | - |
| 1777432721 | 18.33° C | 99% | 1015.5 hPa | 0 mm | - | 0 W/m² | - |
| 1777432417 | 18.33° C | 99% | 1015.7 hPa | 0 mm | - | 0 W/m² | - |
| 1777432113 | 18.33° C | 99% | 1016 hPa | 0 mm | - | 0 W/m² | - |
| 1777431807 | 18.33° C | 99% | 1015.7 hPa | 0 mm | - | 0 W/m² | - |
* Rain latest hour (hover to see other rain measurements)
** Current wind speed in m/s (hover to see current wind gust speed)